Date String (YYYY-MM-DD hh:mm:ss) UTC,Instrument flags,absolute air pressure of the measurement (hPa),sample flow rate (lpm),inlet stack bypass flow (lpm),air temperature of the measurement (°C),ambient temperature measured by the external sensor (°C),aerosol sample conditioner tube jacket temperature (°C),OPC LED temperature (°C),internal box temperature (°C),relative humidity of the measurement (%),span deviation,mass concentration of particles derived from Lorenz-Mie calculation of OPC scattering (μg/m³),mass concentration of particles derived from Lorenz-Mie calculation of OPC scattering (μg/m³),mass concentration of particles derived from Lorenz-Mie calculation of OPC scattering (μg/m³)
DateTimeUTC,F1_M11,P_M11,Q1_M11,Q2_M11,T1_M11,T2_M11,T3_M11,T4_M11,T5_M11,U1_M11,ZSPAN_M11,X0_M11,X2_M11,X1_M11
2024-02-13 00:00:00,SystemResetWarning,0824.7,5.00,000.00,021.7,020.9,000.0,030.1,023.4,11.5,0000.0,0002.80,0000.45,0000.29
2024-02-13 00:01:00,SystemResetWarning,0824.7,5.00,000.00,021.6,020.9,000.0,030.0,023.4,11.7,0000.0,0002.81,0000.46,0000.29
2024-02-13 00:02:00,SystemResetWarning,0824.7,5.00,000.00,021.6,020.9,000.0,030.1,023.4,11.8,0000.0,0001.95,0000.45,0000.30
2024-02-13 00:03:00,SystemResetWarning,0824.7,5.00,000.00,021.6,020.9,000.0,030.0,023.4,11.7,0000.0,0000.78,0000.44,0000.30
2024-02-13 00:04:00,SystemResetWarning,0824.7,5.01,000.00,021.6,020.9,000.0,030.0,023.4,11.8,0000.0,0000.80,0000.44,0000.30
2024-02-13 00:05:00,SystemResetWarning,0824.7,5.01,000.00,021.6,020.9,000.0,030.0,023.4,12.0,0000.0,0000.76,0000.42,0000.30
2024-02-13 00:06:00,SystemResetWarning,0824.8,5.00,000.00,021.6,020.9,000.0,030.0,023.4,11.9,0000.0,0000.75,0000.42,0000.30
2024-02-13 00:07:00,SystemResetWarning,0824.8,5.00,000.00,021.6,020.9,000.0,030.0,023.4,11.8,0000.0,0000.75,0000.42,0000.30
2024-02-13 00:08:00,SystemResetWarning,0824.7,5.00,000.00,021.6,020.9,000.0,030.0,023.4,11.7,0000.0,0000.81,0000.44,0000.29
2024-02-13 00:09:00,SystemResetWarning,0824.8,4.99,000.00,021.6,020.9,000.0,030.0,023.3,11.6,0000.0,0000.84,0000.45,0000.29
2024-02-13 00:10:00,SystemResetWarning,0824.8,4.99,000.00,021.6,020.9,000.0,030.0,023.4,12.0,0000.0,0001.00,0000.50,0000.29
2024-02-13 00:11:00,SystemResetWarning,0824.8,4.99,000.00,021.6,020.9,000.0,030.0,023.4,12.0,0000.0,0001.11,0000.51,0000.29
2024-02-13 00:12:00,SystemResetWarning,0824.9,5.01,000.00,021.6,020.9,000.0,030.0,023.4,11.7,0000.0,0001.14,0000.49,0000.29
2024-02-13 00:13:00,SystemResetWarning,0824.9,5.01,000.00,021.6,020.9,000.0,030.0,023.4,11.8,0000.0,0001.25,0000.52,0000.29
2024-02-13 00:14:00,SystemResetWarning,0824.9,5.00,000.00,021.6,020.9,000.0,030.0,023.4,11.9,0000.0,0001.24,0000.53,0000.29
2024-02-13 00:15:00,SystemResetWarning,0824.8,5.00,000.00,021.6,020.9,000.0,030.0,023.4,11.8,0000.0,0001.22,0000.53,0000.30
2024-02-13 00:16:00,SystemResetWarning,0824.9,4.99,000.00,021.6,020.9,000.0,030.0,023.3,12.1,0000.0,0001.32,0000.55,0000.30
2024-02-13 00:17:00,SystemResetWarning,0824.9,5.01,000.00,021.6,020.9,000.0,030.0,023.3,12.2,0000.0,0001.45,0000.59,0000.30
2024-02-13 00:18:00,SystemResetWarning,0824.9,5.01,000.00,021.6,020.9,000.0,030.0,023.4,12.1,0000.0,0001.48,0000.60,0000.30
2024-02-13 00:19:00,SystemResetWarning,0824.9,4.99,000.00,021.6,020.9,000.0,030.0,023.3,12.1,0000.0,0001.40,0000.57,0000.30
2024-02-13 00:20:00,SystemResetWarning,0824.9,4.99,000.00,021.6,020.8,000.0,030.0,023.3,12.4,0000.0,0001.35,0000.55,0000.30
2024-02-13 00:21:00,SystemResetWarning,0824.9,5.01,000.00,021.6,020.8,000.0,030.0,023.3,12.2,0000.0,0002.70,0000.54,0000.31
2024-02-13 00:22:00,SystemResetWarning,0824.9,5.00,000.00,021.6,020.8,000.0,030.0,023.3,12.4,0000.0,0002.74,0000.51,0000.30
2024-02-13 00:23:00,SystemResetWarning,0824.9,5.00,000.00,021.5,020.8,000.0,029.9,023.3,12.3,0000.0,0002.71,0000.52,0000.30
2024-02-13 00:24:00,SystemResetWarning,0824.9,5.00,000.00,021.5,020.8,000.0,029.9,023.3,12.5,0000.0,0002.63,0000.50,0000.30
2024-02-13 00:25:00,SystemResetWarning,0824.9,5.00,000.00,021.5,020.8,000.0,029.9,023.3,12.4,0000.0,0002.64,0000.51,0000.29
2024-02-13 00:26:00,SystemResetWarning,0824.9,5.00,000.00,021.5,020.8,000.0,029.9,023.3,12.6,0000.0,0002.66,0000.51,0000.29
2024-02-13 00:27:00,SystemResetWarning,0824.9,5.00,000.00,021.5,020.8,000.0,029.9,023.3,12.5,0000.0,0002.70,0000.53,0000.29
2024-02-13 00:28:00,SystemResetWarning,0824.9,5.00,000.00,021.5,020.8,000.0,029.9,023.3,12.6,0000.0,0002.59,0000.51,0000.28
2024-02-13 00:29:00,SystemResetWarning,0824.9,5.00,000.00,021.5,020.8,000.0,029.9,023.3,12.7,0000.0,0002.53,0000.48,0000.29
2024-02-13 00:30:00,SystemResetWarning,0824.9,4.99,000.00,021.5,020.8,000.0,029.9,023.3,12.5,0000.0,0002.60,0000.49,0000.29
2024-02-13 00:31:00,SystemResetWarning,0824.9,4.99,000.00,021.5,020.8,000.0,029.9,023.3,12.6,0000.0,0002.62,0000.49,0000.28
2024-02-13 00:32:00,SystemResetWarning,0825.0,4.99,000.00,021.5,020.8,000.0,029.9,023.3,12.5,0000.0,0001.76,0000.48,0000.28
2024-02-13 00:33:00,SystemResetWarning,0824.9,5.00,000.00,021.5,020.8,000.0,029.9,023.2,12.6,0000.0,0000.97,0000.48,0000.28
2024-02-13 00:34:00,SystemResetWarning,0825.0,5.00,000.00,021.5,020.8,000.0,029.9,023.2,12.4,0000.0,0000.94,0000.47,0000.28
2024-02-13 00:35:00,SystemResetWarning,0825.0,5.00,000.00,021.5,020.8,000.0,029.9,023.2,12.7,0000.0,0000.92,0000.48,0000.28
2024-02-13 00:36:00,SystemResetWarning,0825.0,5.00,000.00,021.5,020.8,000.0,029.9,023.2,12.6,0000.0,0000.94,0000.47,0000.28
2024-02-13 00:37:00,SystemResetWarning,0825.1,5.00,000.00,021.5,020.8,000.0,029.9,023.2,12.6,0000.0,0001.36,0000.49,0000.28
2024-02-13 00:38:00,SystemResetWarning,0825.1,5.00,000.00,021.5,020.7,000.0,029.8,023.2,12.6,0000.0,0001.39,0000.49,0000.28
2024-02-13 00:39:00,SystemResetWarning,0825.1,5.00,000.00,021.5,020.7,000.0,029.8,023.2,12.8,0000.0,0001.37,0000.48,0000.28
2024-02-13 00:40:00,SystemResetWarning,0825.1,5.00,000.00,021.5,020.7,000.0,029.8,023.2,12.7,0000.0,0001.40,0000.50,0000.28
2024-02-13 00:41:00,SystemResetWarning,0825.1,5.00,000.00,021.4,020.7,000.0,029.8,023.2,13.0,0000.0,0001.29,0000.49,0000.28
2024-02-13 00:42:00,SystemResetWarning,0825.1,5.00,000.00,021.4,020.7,000.0,029.8,023.2,12.7,0000.0,0001.26,0000.48,0000.29
2024-02-13 00:43:00,SystemResetWarning,0825.1,5.00,000.00,021.4,020.7,000.0,029.8,023.2,12.6,0000.0,0001.26,0000.47,0000.28
2024-02-13 00:44:00,SystemResetWarning,0825.1,5.00,000.00,021.4,020.7,000.0,029.8,023.2,12.5,0000.0,0001.30,0000.48,0000.28
2024-02-13 00:45:00,SystemResetWarning,0825.1,5.00,000.00,021.4,020.7,000.0,029.8,023.1,12.7,0000.0,0001.32,0000.48,0000.28
2024-02-13 00:46:00,SystemResetWarning,0825.1,5.00,000.00,021.4,020.7,000.0,029.8,023.2,12.8,0000.0,0001.35,0000.48,0000.29
2024-02-13 00:47:00,SystemResetWarning,0825.2,5.00,000.00,021.4,020.7,000.0,029.8,023.1,13.0,0000.0,0001.28,0000.48,0000.29
2024-02-13 00:48:00,SystemResetWarning,0825.1,4.99,000.00,021.4,020.7,000.0,029.8,023.1,13.0,0000.0,0000.78,0000.43,0000.28
2024-02-13 00:49:00,SystemResetWarning,0825.2,5.00,000.00,021.4,020.7,000.0,029.8,023.1,13.0,0000.0,0000.67,0000.40,0000.28
2024-02-13 00:50:00,SystemResetWarning,0825.1,5.00,000.00,021.4,020.7,000.0,029.8,023.1,13.0,0000.0,0000.64,0000.39,0000.29
2024-02-13 00:51:00,SystemResetWarning,0825.1,5.00,000.00,021.4,020.7,000.0,029.8,023.1,13.1,0000.0,0000.58,0000.37,0000.29
2024-02-13 00:52:00,SystemResetWarning,0825.1,5.00,000.00,021.4,020.7,000.0,029.8,023.1,13.1,0000.0,0000.61,0000.38,0000.29
2024-02-13 00:53:00,SystemResetWarning,0825.1,5.00,000.00,021.4,020.7,000.0,029.8,023.1,13.0,0000.0,0000.65,0000.39,0000.29
2024-02-13 00:54:00,SystemResetWarning,0825.1,5.00,000.00,021.4,020.7,000.0,029.8,023.1,13.1,0000.0,0000.64,0000.38,0000.29
2024-02-13 00:55:00,SystemResetWarning,0825.1,5.00,000.00,021.4,020.7,000.0,029.8,023.1,13.1,0000.0,0000.64,0000.37,0000.29
2024-02-13 00:56:00,SystemResetWarning,0825.1,5.00,000.00,021.4,020.7,000.0,029.8,023.1,13.2,0000.0,0000.65,0000.37,0000.29
2024-02-13 00:57:00,SystemResetWarning,0825.1,4.99,000.00,021.4,020.7,000.0,029.8,023.1,13.1,0000.0,0000.59,0000.35,0000.29
2024-02-13 00:58:00,SystemResetWarning,0825.1,5.01,000.00,021.4,020.7,000.0,029.8,023.1,13.2,0000.0,0000.57,0000.34,0000.29
2024-02-13 00:59:00,SystemResetWarning,0825.1,5.01,000.00,021.4,020.7,000.0,029.8,023.1,13.1,0000.0,0000.59,0000.35,0000.29
